THORAD AGENA D DEB, 42536

Orbit data source: Space-Track

THORAD AGENA D DEB, 42536 is space debris in SSO originally from a launch on Wed, 08 Apr 1970 UTC launched from the Air Force Western Test Range (AFWTR). Debris objects in space refer to the collection of defunct objects orbiting the Earth. Examples of debris include non-operational satellites, rocket bodies, and fragments generated from explosions, collisions, or faulty payload assembly.

Loading next visibility...
Identifier
42536, 1970-025SS
Orbit
SSO
Country
Flag of USUS
Related business
Manufacturer
Unknown
Mission
Spacecraft
Bus & Motor
Unknown
Mass
Unknown
Launch date (UTC)
1970-04-08 (56 years ago)
Launch vehicle
Unknown
Launch site
Air Force Western Test Range (AFWTR)
Object type
Payload
Rocket body
Debris
Shape & HBR
Unknown shape, 0.1 m
Radar Cross Section
Small (<0.1 m²)

Expand to show TLE details & history
Last TLE update: 8 hours ago

TLE from 8 hours ago
0 THORAD AGENA D DEB
1 42536U 70025SS  26167.08907534  .00004244  00000-0  22520-2 0  9999
2 42536  99.5024 114.0434 0061714 341.3855  18.5058 14.13188743640351
Epoch: 2026-06-16T02:08Z
TLE epoch observation values (Epoch: 2026-06-16T02:08:16.109Z)
Latitude
-0.00003°
Longitude
177.61016°
Altitude
809.087 km
Speed
7.471 km/s
True Right ascension
07h 36m 10s
True Declination
0° 00' 00"
Sunlit
Object was in daylight at epoch
Visualization orbit readout
Latitude
Unknown
Longitude
Unknown
Altitude
Unknown
Speed
Unknown
Apparent Right ascension
Unknown
Apparent Declination
Unknown
Sunlit
N/A
Visualization observer readout
Local Sidereal Time
20:19:07
Azimuth
Unknown
Elevation
Unknown
Doppler factor
Unknown
Orbital elements
Apogee altitude
890.269 km
Perigee altitude
801.106 km
Semi-major axis
7,223.824 km
Eccentricity
0.00617
Inclination
99.5024°
RAAN
114.0434°
Arg. of periapsis
341.3855°
True anomaly
18.73192°
Mean anomaly
18.5058°
Eccentric anomaly
18.61869°
Mean motion
3.53502 °/min
Orbital period
101.84 mins
BSTAR
0.002252
Loading maneuver chart data...
Computing Atmospheric mass density...

Documentation

Showing up to 5 results
|